Regional Weather Roundup
Issued by NWS Wakefield, VA

Home | Current Version | Previous Version | Graphics & Text | Print | Product List | Glossary On
Versions: 1 2 3 4 5 6 7 8 9 10 11 12 13 14 15 16 17 18 19 20 21 22 23 24 25 26 27 28 29 30 31 32 33 34 35 36 37 38 39 40 41 42 43 44 45 46 47 48 49 50
552
ASUS41 KAKQ 230615
RWRAKQ

REGIONAL WEATHER ROUNDUP
NATIONAL WEATHER SERVICE WAKEFIELD VA
100 AM EST MON JAN 23 2017

Note: "fair" indicates few or no clouds below 12,000 feet with no
significant weather and/or obstructions to visibility. * = Denotes
station may not report precipitation (e.g., rain,snow,etc.),
thunder or fog.

VAZ042-051-052>054-056-230700-
NORTHERN VIRGINIA

CITY           SKY/WX    TMP DP  RH WIND       PRES   REMARKS
WASH NATIONAL  LGT RAIN  50  49  96 NE14      29.60F FOG
DULLES         LGT RAIN  50  47  89 E13       29.59F FOG
FORT BELVOIR   CLOUDY    50  48  93 VRB6      29.58F FOG
QUANTICO       FOG       50  50 100 NE12      29.58F VSB 1
FREDERICKSBRG* CLOUDY    50  50 100 NE13G18   29.55F FOG
STAFFORD*      CLOUDY    49  49 100 NE12      29.60F FOG
WARRENTON      LGT RAIN  51  48  89 NE8G20    29.55F
CULPEPER*      DRIZZLE   51  51 100 NE6       29.55F
MANASSAS*      NOT AVBL
LEESBURG*      CLOUDY    52  52 100 E10G16    29.61S
WINCHESTER     DRIZZLE   45  45 100 NE5       29.59S
FRONT ROYAL*   CLOUDY    45  45 100 N3        29.57F
LURAY*         LGT RAIN  46  46 100 N6        29.55F
$$

VAZ048-049-060>072-079>083-230700-
CENTRAL AND SOUTH CENTRAL VIRGINIA

CITY           SKY/WX    TMP DP  RH WIND       PRES   REMARKS
RICHMOND       LGT RAIN  50  50 100 NE10      29.50F FOG
CHESTERFIELD*  CLOUDY    50  36  57 E6        29.51F
PETERSBURG*    CLOUDY    48  46  93 NE9       29.49F FOG
HANOVER        CLOUDY    50  48  93 VRB6      29.53F FOG
TAPPAHANNOCK*  CLOUDY    51  51 100 NE9G18    29.53F FOG
QUINTON*       CLOUDY    49  49 100 NE6       29.52F FOG
CHARLOTTSVILLE LGT RAIN  50  48  93 NE8       29.53F FOG
GORDONSVILLE*  CLOUDY    49  49 100 N5        29.53F FOG
ORANGE*        DRIZZLE   50  50 100 CALM      29.55F
LOUISA*        CLOUDY    52  52 100 NE8       29.51F FOG
BUMPASS*       CLOUDY    48  48 100 NE5       29.52F
FARMVILLE*     LGT RAIN  50  50 100 NE9       29.48F
CREWE*         CLOUDY    49  49 100 NE5       29.47F
FORT PICKETT*  CLOUDY   N/A N/A N/A NE12      29.46F
CHASE CITY*    CLOUDY    49  47  95 NE7       29.43F
CLARKSVILLE*   CLOUDY    50  50 100 NE7       29.42F
SOUTH HILL*    CLOUDY    48  48 100 NE5       29.48F
LAWRENCEVILLE* CLOUDY    49  48  97 NE8       29.43F
EMPORIA*       DRIZZLE   48  48 100 N9        29.45F
$$

VAZ088>098-230700-
SOUTHEAST VIRGINIA

CITY           SKY/WX    TMP DP  RH WIND       PRES   REMARKS
NORFOLK        FOG       47  46  97 N7        29.50F VSB 3/4
VIRGINIA BEACH DRZL/FOG  47  45  93 N3        29.50F VSB 1/2
NORFOLK NAVAL  DRZL/FOG  48  47  96 N8        29.52F VSB 1/2
WEST POINT*    CLOUDY    50  50  99 NE7       29.53F
SALUDA*        CLOUDY    51  51 100 NE9G17    29.54F
NEWPORT NEWS   CLOUDY    50  49  96 NE6       29.51F FOG
LANGLEY AFB    CLOUDY    49  49 100 NE9       29.50F FOG
FORT EUSTIS    CLOUDY    51  49  94 NE6       29.48F FOG
WILLIAMSBURG*  CLOUDY    52  52 100 CALM      29.51F
HR EXEC AP*    CLOUDY    50  46  87 E3        29.50S
FRANKLIN*      DRIZZLE   49  49  99 NE10      29.49F
US460-WAKEFLD  CLOUDY    49  49 100 NE6       29.48F FOG
$$

VAZ020-022-025-037-045-230700-
WEST CENTRAL AND SOUTHWEST VIRGINIA

CITY           SKY/WX    TMP DP  RH WIND       PRES   REMARKS
STAUNTON*      DRIZZLE   46  45  98 N7        29.54F
WAYNESBORO*    CLOUDY    46  44  95 N3        29.52F
HOT SPRINGS VA LGT RAIN  37  37 100 E12G21    29.43F VSB 1/4
LYNCHBURG      LGT RAIN  48  47  96 NE16G25   29.46F FOG
DANVILLE       LGT RAIN  50  50 100 NE16      29.38F
SOUTH BOSTON*  CLOUDY    49  48  95 NE8       29.42F
MARTINSVILLE   LGT RAIN  49  47  95 NE10      29.38F
ROANOKE        LGT RAIN  50  48  93 NE9       29.45F
BLACKSBURG     LGT RAIN  46  46  99 E14G24    29.41F
DUBLIN*        CLOUDY    48  48 100 E12       29.38F
MARION*        LGT RAIN  48  47  95 E17       29.34F
HILLSVILLE*    RAIN      47  47 100 E12G20    29.32F
RICHLANDS*     CLOUDY    50  46  86 E7        29.29F
WISE*          CLOUDY    52  45  76 NE7       29.28F
ABINGDON*      LGT RAIN  52  49  90 E17G23    29.26F
$$

MDZ021>025-VAZ099-100-230700-
SOUTHERN MARYLAND AND THE DELMARVA PENINSULA

CITY           SKY/WX    TMP DP  RH WIND       PRES   REMARKS
PATUXENT RIVER CLOUDY    50  49  96 E17       29.56F FOG
BAY BRIDGE APT DRIZZLE   48  48 100 E13G22    29.63S FOG
LEONARDTOWN    CLOUDY    50  48  93 NE9       29.58F
DOVER          CLOUDY    46  46 100 NE12      29.65R
GEORGETOWN     LGT RAIN  48  48 100 NE20G31   29.63R FOG
EASTON         CLOUDY    50  47  90 E18G26    29.66F FOG
CAMBRIDGE      CLOUDY    48  46  93 NE8G18    29.57F
SALISBURY      LGT RAIN  50  49  96 NE20G32   29.58S FOG
OCEAN CITY     CLOUDY    48  48 100 NE17G25   29.57F FOG
WALLOPS ISLAND LGT RAIN  49  49 100 NE23G35   29.55F FOG
ACCOMACK*      CLOUDY    53  52  97 NE15G21   29.53R FOG
$$

NCZ012>017-030>032-230700-
NORTH CENTRAL AND EASTERN NORTH CAROLINA

CITY           SKY/WX    TMP DP  RH WIND       PRES   REMARKS
ROANOKE RAPIDS RAIN      50  50 100 NE6       29.43F
RALEIGH        LGT RAIN  52  51  97 E12G20    29.37F
ELIZABETH CITY LGT RAIN  50  49  96 NE9       29.49F FOG
AHOSKIE*       DRIZZLE   49  49  98 NE7       29.44F
EDENTON*       LGT RAIN  52  51  95 NE7       29.48F
CURRITUCK*     RAIN      49  49 100 NE5       29.50F
KILL DEVIL HLS NOT AVBL
MANTEO         DRIZZLE   47  47 100 NE9       29.49F
CAPE HATTERAS  LGT RAIN  53  51  93 NE8       29.45F FOG
TARBORO*       NOT AVBL
GOLDSBORO      CLOUDY    56  56 100 E14       29.33F
WASHINGTON     CLOUDY    51  51  99 E12G18      N/A
GREENVILLE     CLOUDY    52  52 100 E8        29.45F
NEW BERN       RAIN      55  54  96 E12G21    29.39F FOG
WILMINGTON     LGT RAIN  61  61 100 E14G22    29.31F FOG
$$

VAZ048-230700-
ELSEWHERE

CITY           SKY/WX    TMP DP  RH WIND       PRES   REMARKS
HARRISBURG PA  LGT RAIN  47  45  93 E18       29.69S FOG
BALTIMORE      LGT RAIN  47  47 100 NE17G28   29.64F FOG
ANNAPOLIS      CLOUDY    49  46  90 NE12      29.62F FOG
ANDREWS AFB    CLOUDY    48  48 100 E18G26    29.59S FOG
PHILADELPHIA   CLOUDY    46  42  86 NE17G33   29.73F
HENDERSON NC   DRIZZLE   47  47  97 E10G16    29.40F
GREENSBORO     LGT RAIN  51  51 100 E25G31    29.29F
ROCKY MOUNT    RAIN      52  52 100 NE13      29.39F FOG
$$

VAZ100-230700-
MARINE

STATION/POSITION TIME  TEMP    WIND        PRES    WAVE   SWELL
                       AIR SEA DIR/SP/G            HT/PER HT/PER
                 (UTC) (F)     (DEG/KT/KT) (MB)    (FT/S) (FT/S)
CAPE MAY NJ      0548           50/  9/ 19 1003.1R
LEWES DE         0542           70/ 25/ 32 1002.9F
OCEAN-CITY-INLET 0542           70/ 10/ 17 1002.2S
WACHAPREAGUE VA  0548           40/ 19/ 23  999.6R
THOMAS POINT MD  0600   48 40   80/ 19/ 22   N/A
GOOSES REEF MD   0550   46      80/ 16/ 17 1003.3F
COVE POINT MD    0548           70/ 17/ 20 1001.9F
SOLOMONS ISLAND  0542           50/ 14/ 18   N/A
BISHOPS HEAD MD  0548           50/ 16/ 21 1000.9F
PINEY POINT MD   0548           80/ 12/ 18   N/A
POTOMAC MD       0550   47      50/ 16/ 19 1000.0F
CAMBRIDGE MD     0548           60/ 17/ 23 1001.4F
LEWISETTA VA     0548           70/ 11/ 16 1000.1F
RAPPAHANNOCK LGT 0548           40/ 15/ 17 1000.3R
STINGRAY PT      0550   44      30/  8/ 10 1000.6S
YORK RVR RNG VA  0548           30/ 12/ 13  998.5F
YORKTOWN VA      0548           30/  5/  6  999.0F
JAMESTOWN VA     0550   49      40/  2/  4   N/A
DOMINION TERM VA 0548           20/  6/  9  999.1F
CHES BAY BRIDGE  0548          360/  9/ 11  998.9F
CAPE HENRY VA    0548          350/  5/  6   N/A
WILLOUBY STN VA  0548           10/  8/  8  999.9F
S CRANEY ISL VA  0548          360/  8/ 10  998.8F
CAPE HENRY BUOY  0542      48                N/A     3/13   2/13
OFFSHORE WE BUOY 0551      48                N/A     4/13   2/13
64NM E OF VA BCH 0550   52 56  100/  4/  4  998.7F   4/13   3/13
DUCK PIER NC     0548          360/  7/  8  998.4F
44100 DUCK FRF   0505      48                N/A     4/13   2/13
44056 DUCK FRF   0530      47                N/A     3/12   2/12
OREGON INLET NC  0542           10/  7/  9  998.2F
HATTERAS NC      0548           40/  8/ 13   N/A
DIAMOND SHLS NC  0550   63 71   40/ 14/ 17  997.3F   5/ 8   3/ 8
CAPE LOOKOUT NC  0500   64      50/ 13/ 16  996.0F
$$




USA.gov is the U.S. government's official web portal to all federal, state and local government web resources and services.